Flag for French Polynesia Weather past 2 weeks in Taiohae, Marquesas Islands, French Polynesia

Now
87 °F

Passing clouds.


Feels Like: 94 °F
Forecast: 78 / 84 °F
Wind: 9 mph from Southeast

Location: Atuona

Current Time: Apr 26, 2015 at 11:31:40 AM

Latest Report: Apr 26, 2015 at 10:30 AM


Visibility: 37 mi

Pressure: 29.89 "Hg

Humidity: 60%

Dew point: 72 °F

Location of TaiohaeLocation

Historic Weather in Taiohae — Graph

°F

Taiohae temperature yesterday

Maximum temperature yesterday: 87 °F (at 9:30 AM)
Minimum temperature yesterday: 74 °F (at 5:30 AM)
Average temperature yesterday: 80 °F

Past Weeks' High & Low Weather Summary

 TemperatureHumidityPressure
High92 °F (Apr 19, 10:30 AM)92% (Apr 21, 6:30 AM)29.98 "Hg (Apr 21, 6:30 AM)
Low72 °F (Apr 17, 4:30 AM)50% (Apr 18, 12:30 PM)29.77 "Hg (Apr 20, 3:30 PM)
Average81 °F74%29.86 "Hg
* Reported Apr 11 9:30 AM — Apr 26 9:30 AM, Taiohae, Weather by CustomWeather, © 2015

Note: Actual official high and low records may vary slightly from our data, if they occured in-between our weather recording intervals... More about our weather records

Advertising

Taiohae weather history for previous 24 hours

 ConditionsComfort  
Time TempWeatherWind HumidityBarometerVisibility
9:30 AM
Sun, Apr 26
89 °FPassing clouds.8 mph60%29.92 "Hg37 mi
8:30 AM84 °FPassing clouds.2 mph61%29.92 "Hg37 mi
7:30 AM82 °FWarm.No wind70%29.91 "HgN/A
6:30 AM74 °FPassing clouds.1 mph81%29.90 "Hg25 mi
5:30 AM73 °FPassing clouds.1 mph80%29.88 "Hg19 mi
4:30 AM73 °FMild.No wind83%29.86 "HgN/A
3:30 AM73 °FMild.2 mph85%29.86 "HgN/A
2:30 AM74 °FMild.2 mph85%29.86 "HgN/A
1:30 AM75 °FMild.2 mph83%29.87 "HgN/A
12:30 AM76 °FMild.2 mph84%29.89 "HgN/A
11:30 PM
Sat, Apr 25
76 °FMild.1 mph84%29.90 "HgN/A
10:30 PM76 °FMild.2 mph84%29.91 "HgN/A
9:30 PM76 °FMild.No wind82%29.92 "HgN/A
8:30 PM76 °FMild.2 mph80%29.90 "HgN/A
7:30 PM77 °FMild.No wind79%29.88 "HgN/A
6:30 PM78 °FWarm.No wind78%29.85 "HgN/A
4:30 PM82 °FPassing clouds.14 mph71%29.81 "Hg37 mi
3:30 PM83 °FPassing clouds.17 mph67%29.79 "Hg37 mi
2:30 PM84 °FPassing clouds.15 mph65%29.79 "Hg37 mi
1:30 PM85 °FPassing clouds.15 mph64%29.80 "Hg37 mi
12:30 PM86 °FPassing clouds.14 mph61%29.83 "Hg37 mi
11:30 AM87 °FPassing clouds.13 mph58%29.86 "Hg37 mi
Weather by CustomWeather, © 2015

See weather overviewHow to use our weather pages